Regional Weather Roundup
Issued by NWS Kansas City/Pleasant Hill, MO

Home | Current Version | Previous Version | Text Only | Print | Product List | Glossary On
Versions: 1 2 3 4 5 6 7 8 9 10 11 12 13 14 15 16 17 18 19 20 21 22 23 24 25 26 27 28 29 30 31 32 33 34 35 36 37 38 39 40 41 42 43 44 45 46 47 48 49 50
024
ASUS43 KEAX 270810
RWREAX

WEATHER ROUNDUP FOR EASTERN KANSAS AND NORTHWEST MISSOURI
NATIONAL WEATHER SERVICE KANSAS CITY/PLEASANT HILL MO
300 AM CDT SAT MAY 27 2017

KSZ040-057-103>105-MOZ028-029-037-043-270900-
...KANSAS CITY METROPOLITAN AREA...

CITY           SKY/WX    TMP DP  RH WIND       PRES   REMARKS
K.C. INTL      CLEAR     69  64  84 SE6       29.84S
K.C. DOWNTOWN  CLEAR     69  64  84 NE5       29.82S
LEES SUMMIT    CLEAR     67  65  93 E6        29.84S
OLATHE - IXD   CLEAR     66  63  90 E5        29.83F
OLATHE - OJC   CLEAR     67  66  97 CALM      29.83F
LAWRENCE       CLEAR     64  63  96 CALM      29.82F

$$

MOZ001>008-011>017-020>025-030>033-038>040-044>046-053-054-270900-
...NORTHERN AND CENTRAL MISSOURI...

CITY           SKY/WX    TMP DP  RH WIND       PRES   REMARKS
ST. JOSEPH     CLOUDY    63  63 100 N3        29.84S
MOSBY          MOSUNNY   63  63 100 CALM      29.84S FOG
WARRENSBURG    CLEAR     63  63 100 CALM      29.83S FOG
WHITEMAN AFB   CLEAR     64 N/A N/A SE3       29.83S FOG
CLINTON        FOG       64  64 100 CALM      29.83F VSB 1/2
SEDALIA        CLEAR     65  65 100 SE6       29.85F FOG
WARSAW         NOT AVBL
CHILLICOTHE      N/A     65  63  93 CALM      29.86S
KIRKSVILLE     CLOUDY    61  60  97 E5        29.88R

$$

MOZ041-047>049-056>058-063>065-088>090-097-270900-
...EASTERN AND SOUTHERN MISSOURI...

CITY           SKY/WX    TMP DP  RH WIND       PRES   REMARKS
ST. LOUIS INTL PTCLDY    72  67  84 NW7       29.85F
SPIRIT OF STL  CLEAR     68  68 100 CALM      29.83F
COLUMBIA       MOCLDY    67  66  97 NE7       29.86S
JEFFERSON CITY CLEAR     67  63  87 CALM      29.84F
ROLLA          FOG       63  63 100 CALM      29.84F VSB 1
OSAGE BEACH    CLOUDY    66  65  96 NE3       29.84F
SPRINGFIELD    CLOUDY    72  70  93 SE8       29.84R
BRANSON        TSTM      64  63  94 CALM      29.87R
JOPLIN         CLOUDY    74  70  87 E5        29.80F
WEST PLAINS    TSTM      71  70  96 VRB3      29.86F FOG

$$

IAZ060-094-KSZ022-034>040-054-083-096-NEZ052-066-093-270900-
...KANSAS...SOUTHEAST NEBRASKA AND IOWA...

CITY           SKY/WX    TMP DP  RH WIND       PRES   REMARKS
TOPEKA         CLEAR     64  64 100 CALM      29.82S
MANHATTAN      CLOUDY    64  60  87 N3        29.82F
EMPORIA        CLEAR     63  62  97 E5        29.81F
CHANUTE        CLEAR     64  63  96 CALM      29.80F
WICHITA        CLEAR     69  63  81 E13       29.76F
OMAHA          CLOUDY    55  49  80 NW7       29.89S
LINCOLN        CLOUDY    61  48  62 N6        29.89S
FALLS CITY     PTCLDY    68  51  54 CALM      29.84S
LAMONI         CLOUDY    67  61  81 CALM      29.87S
DES MOINES     MOCLDY    63  60  90 NE3       29.87R

$$





USA.gov is the U.S. government's official web portal to all federal, state and local government web resources and services.